Overview Statistics Trail Chart Weather Telemetry Raw packets
 

This is the latest recevied weather packets stored in our database for station/object EW1958. If no packets are shown the sender has not sent any weather packets the latest 10 day(s).

<< 20 21 22 23 24 25 26 >>
Time Temp. Humidity Pressure Rain* Wind** Luminosity Snow
1788551430 18.89° C 73% 1015.7 hPa 0 mm - - -
1788551131 18.33° C 70% 1015.7 hPa 0 mm - - -
1788550828 18.33° C 70% 1015.9 hPa 0 mm - - -
1788550654 17.78° C 68% 1015.9 hPa 0 mm - - -
1788550224 17.78° C 69% 1015.9 hPa 0 mm - - -
1788550050 17.78° C 69% 1015.9 hPa 0 mm - - -
1788549620 17.78° C 68% 1016.1 hPa 0 mm - - -
1788549320 17.78° C 70% 1016.1 hPa 0 mm - - -
1788549018 18.33° C 70% 1016.2 hPa 0 mm - - -
1788548715 17.78° C 72% 1016.2 hPa 0 mm - - -
1788548412 17.78° C 76% 1016.2 hPa 0 mm - - -
1788548113 17.22° C 73% 1016.2 hPa 0 mm - - -
1788547808 16.67° C 76% 1016.3 hPa 0 mm - - -
1788547507 16.67° C 76% 1016.4 hPa 0 mm - - -
1788547206 16.67° C 74% 1016.3 hPa 0 mm - - -
1788547034 16.67° C 77% 1016.3 hPa 0 mm - - -
1788546606 16.67° C 75% 1016.3 hPa 0 mm - - -
1788546306 16.67° C 75% 1016.2 hPa 0 mm - - -
1788546163 16.67° C 77% 1016.1 hPa 0 mm - - -
1788545705 16.11° C 79% 1016 hPa 0 mm - - -
1788545405 16.11° C 80% 1016 hPa 0 mm - - -
1788545232 15.56° C 79% 1016 hPa 0 mm - - -
1788544801 15.56° C 85% 1015.9 hPa 0 mm - - -
1788544500 15° C 84% 1015.9 hPa 0 mm - - -
1788544197 15° C 83% 1015.9 hPa 0 mm - - -

* Rain latest hour (hover to see other rain measurements)
** Current wind speed in m/s (hover to see current wind gust speed)